Location: Dos Palmas
(32.4468°N, 116.8732°W)
Time: 00:51:12
(UTC+00:00)

Meteor 1-24 Rocket - Pass Details

Date: 30 October 2021
Orbit: 790 x 927 km, 81.3° (Epoch: 28 November)

Event Time Altitude Azimuth Distance (km) Brightness Sun altitude
Rises 11:34:34 0° 159° (SSE) 3,280 7.0 -31.9°
Reaches altitude 10° 11:37:12 10° 148° (SSE) 2,365 6.3 -31.3°
Maximum altitude 11:41:42 28° 90° (E) 1,467 5.5 -30.4°
Drops below altitude 10° 11:46:19 10° 32° (NNE) 2,433 6.5 -29.4°
Sets 11:49:02 0° 22° (NNE) 3,393 7.1 -28.8°
